COSMOS 249 DEB, 3609

Orbit data source: Space-Track

COSMOS 249 DEB, 3609 is space debris in LEO originally from a launch on Sun, 20 Oct 1968 UTC launched from the Tyuratam Missile And Space Complex (TTMTR). Debris objects in space refer to the collection of defunct objects orbiting the Earth. Examples of debris include non-operational satellites, rocket bodies, and fragments generated from explosions, collisions, or faulty payload assembly.

Loading next visibility...
Identifier
3609, 1968-091AB
Orbit
LEO
Country
Flag of CISCIS
Related business
Manufacturer
Unknown
Mission
Spacecraft
Bus & Motor
Unknown
Mass
Unknown
Launch date (UTC)
1968-10-20 (57 years ago)
Launch vehicle
Unknown
Launch site
Tyuratam Missile And Space Complex (TTMTR)
Object type
Payload
Rocket body
Debris
Shape & HBR
Unknown shape, 0.1 m
Radar Cross Section
Small (<0.1 m²)

Expand to show TLE details & history
Last TLE update: 14 hours ago

TLE from 14 hours ago
0 COSMOS 249 DEB
1  3609U 68091AB  25308.68381256  .00002131  00000-0  37757-3 0  9998
2  3609  62.2715  59.9993 0747277  81.6811 286.8171 13.64914336674231
Epoch: 2025-11-04T16:24Z
TLE epoch observation values (Epoch: 2025-11-04T16:24:41.405Z)
Latitude
-0.00005°
Longitude
129.65945°
Altitude
898.632 km
Speed
7.464 km/s
True Right ascension
03h 59m 59s
True Declination
0° 00' 00"
Sunlit
Object was in full shadow at epoch
Visualization orbit readout
Latitude
Unknown
Longitude
Unknown
Altitude
Unknown
Speed
Unknown
Apparent Right ascension
Unknown
Apparent Declination
Unknown
Sunlit
N/A
Visualization observer readout
Local Sidereal Time
02:52:57
Azimuth
Unknown
Elevation
Unknown
Doppler factor
Unknown
Orbital elements
Apogee altitude
1,569.447 km
Perigee altitude
464.229 km
Semi-major axis
7,394.975 km
Eccentricity
0.07473
Inclination
62.2715°
RAAN
59.9993°
Arg. of periapsis
81.6811°
True anomaly
278.42297°
Mean anomaly
286.8171°
Eccentric anomaly
282.63927°
Mean motion
3.41301 °/min
Orbital period
105.48 mins
BSTAR
0.00037757
Loading maneuver chart data...
Computing Atmospheric mass density...

Documentation

Showing up to 5 results
|